Regional Weather Roundup
Issued by NWS

Home | Current Version | Previous Version | Text Only | Print | Product List | Glossary On
Versions: 1 2 3 4 5 6 7 8 9 10 11 12 13 14 15 16 17 18 19 20 21 22 23 24 25 26 27 28
000
ASUS45 KBOI 280210
RWRID

IDAHO REGIONAL WEATHER ROUNDUP
NATIONAL WEATHER SERVICE BOISE ID
800 PM MDT SAT MAY 27 2017

NOTE: "FAIR" INDICATES FEW OR NO CLOUDS BELOW 12000 FEET
WITH NO SIGNIFICANT WEATHER AND/OR OBSTRUCTIONS TO VISIBILITY

IDZ012-014-280300-
SOUTHWEST IDAHO


CITY           SKY/WX    TMP DP  RH WIND       PRES   REMARKS
BOISE          SUNNY     76  33  21 W6        30.13F
CALDWELL       SUNNY     76  34  21 CALM      30.13S
MOUNTAIN HOME  SUNNY     76  33  20 SE6       30.13F
$$

IDZ016-017-280300-
SOUTHCENTRAL IDAHO


CITY           SKY/WX    TMP DP  RH WIND       PRES   REMARKS
BURLEY         CLEAR     67  35  30 SE5       30.20S
JEROME         SUNNY     69  37  30 NE3       30.20F
TWIN FALLS     CLEAR     69  35  28 CALM      30.20F
$$

IDZ019>023-280300-
SOUTHEAST IDAHO


CITY           SKY/WX    TMP DP  RH WIND       PRES   REMARKS
IDAHO FALLS    CLEAR     65  40  39 S8        30.24R
POCATELLO      PTCLDY    66  40  38 VRB3      30.24S
REXBURG        MOCLDY    63  37  38 SW6       30.23S
$$

IDZ006-010-011-018-031-032-280300-
CENTRAL IDAHO MOUNTAINS


CITY           SKY/WX    TMP DP  RH WIND       PRES   REMARKS
MCCALL         SUNNY     67  32  27 W6        30.20S
STANLEY          N/A     63  26  24 NW5       30.28S
SALMON         MOSUNNY   63  41  45 W3        30.15S
CHALLIS        MOSUNNY   66  39  37 N5        30.19S
$$

IDZ002-004-006-007-026-280300-
NORTHERN IDAHO


CITY           SKY/WX    TMP DP  RH WIND       PRES   REMARKS
LEWISTON       SUNNY     81  41  24 VRB5      30.08S
LOWELL           N/A     68  47  46 CALM      30.08S
COEUR D`ALENE  SUNNY     77  45  32 SW7       30.12S
MULLAN PASS    SUNNY     58  35  42 CALM      30.28S
$$




USA.gov is the U.S. government's official web portal to all federal, state and local government web resources and services.